| time (UTC) | temp C | wind direction | speed KPH | gust KPH | rain 1hr cm | rain 24hr cm | rain mn cm | humidity % | barometer mb |
| 20260502223523 | 18 | 228 | 1.6 | 1.6 | 0.00 | 0.00 | 0.00 | 34 | 1011.1 |
| 20260502223021 | 18 | 160 | 0.0 | 0.0 | 0.00 | 0.00 | 0.00 | 34 | 1011.1 |
| 20260502222518 | 18 | 160 | 1.6 | 3.2 | 0.00 | 0.00 | 0.00 | 36 | 1010.9 |
| 20260502222014 | 18 | 202 | 1.6 | 3.2 | 0.00 | 0.00 | 0.00 | 35 | 1011.0 |
| 20260502221510 | 18 | 182 | 3.2 | 4.8 | 0.00 | 0.00 | 0.00 | 34 | 1010.9 |
| 20260502221008 | 18 | 305 | 4.8 | 8.0 | 0.00 | 0.00 | 0.00 | 34 | 1011.1 |
| 20260502220503 | 18 | 217 | 1.6 | 1.6 | 0.00 | 0.00 | 0.00 | 34 | 1011.3 |
| 20260502215959 | 18 | 194 | 6.4 | 8.0 | 0.00 | 0.00 | 0.00 | 33 | 1011.5 |
| 20260502215457 | 18 | 150 | 0.0 | 1.6 | 0.00 | 0.00 | 0.00 | 34 | 1011.4 |
| 20260502214954 | 18 | 252 | 4.8 | 4.8 | 0.00 | 0.00 | 0.00 | 34 | 1011.4 |
| 20260502214451 | 18 | 281 | 6.4 | 9.7 | 0.00 | 0.00 | 0.00 | 33 | 1011.6 |
| 20260502213948 | 19 | 174 | 1.6 | 1.6 | 0.00 | 0.00 | 0.00 | 35 | 1011.5 |
| 20260502213444 | 18 | 290 | 0.0 | 1.6 | 0.00 | 0.00 | 0.00 | 35 | 1011.8 |
| 20260502212943 | 19 | 326 | 1.6 | 4.8 | 0.00 | 0.00 | 0.00 | 34 | 1011.7 |
| 20260502212441 | 19 | 341 | 4.8 | 11.3 | 0.00 | 0.00 | 0.00 | 32 | 1011.7 |
| 20260502211938 | 20 | 178 | 6.4 | 8.0 | 0.00 | 0.00 | 0.00 | 32 | 1011.9 |
| 20260502211434 | 20 | 265 | 6.4 | 8.0 | 0.00 | 0.00 | 0.00 | 32 | 1012.0 |
| 20260502210932 | 20 | 258 | 6.4 | 9.7 | 0.00 | 0.00 | 0.00 | 30 | 1012.1 |
| 20260502210428 | 20 | 162 | 0.0 | 1.6 | 0.00 | 0.00 | 0.00 | 34 | 1012.1 |
| 20260502205926 | 19 | 157 | 4.8 | 8.0 | 0.00 | 0.00 | 0.00 | 33 | 1012.3 |
| 20260502205421 | 19 | 133 | 3.2 | 4.8 | 0.00 | 0.00 | 0.00 | 32 | 1012.3 |
| 20260502204919 | 19 | 145 | 0.0 | 1.6 | 0.00 | 0.00 | 0.00 | 33 | 1012.5 |
| 20260502204416 | 20 | 95 | 3.2 | 8.0 | 0.00 | 0.00 | 0.00 | 31 | 1012.7 |
| 20260502203914 | 19 | 76 | 3.2 | 3.2 | 0.00 | 0.00 | 0.00 | 32 | 1012.7 |
| 20260502203411 | 19 | 107 | 4.8 | 8.0 | 0.00 | 0.00 | 0.00 | 32 | 1013.0 |
| 20260502202906 | 18 | 325 | 1.6 | 8.0 | 0.00 | 0.00 | 0.00 | 34 | 1012.9 |
| 20260502202404 | 18 | 178 | 3.2 | 3.2 | 0.00 | 0.00 | 0.00 | 32 | 1013.0 |
| 20260502201902 | 18 | 219 | 0.0 | 1.6 | 0.00 | 0.00 | 0.00 | 33 | 1013.2 |
| 20260502201357 | 18 | 178 | 4.8 | 8.0 | 0.00 | 0.00 | 0.00 | 35 | 1013.1 |
| 20260502200855 | 18 | 170 | 8.0 | 11.3 | 0.00 | 0.00 | 0.00 | 34 | 1013.3 |
| 20260502200350 | 18 | 186 | 4.8 | 4.8 | 0.00 | 0.00 | 0.00 | 33 | 1013.5 |
| 20260502195848 | 17 | 171 | 4.8 | 8.0 | 0.00 | 0.00 | 0.00 | 34 | 1013.4 |
| 20260502195344 | 18 | 173 | 3.2 | 4.8 | 0.00 | 0.00 | 0.00 | 35 | 1013.8 |
| 20260502194841 | 18 | 328 | 3.2 | 4.8 | 0.00 | 0.00 | 0.00 | 34 | 1013.6 |
| 20260502194338 | 17 | 157 | 1.6 | 1.6 | 0.00 | 0.00 | 0.00 | 35 | 1013.8 |
| 20260502193834 | 17 | 170 | 4.8 | 8.0 | 0.00 | 0.00 | 0.00 | 34 | 1013.9 |
| 20260502193331 | 17 | 167 | 4.8 | 8.0 | 0.00 | 0.00 | 0.00 | 34 | 1014.0 |
| 20260502192827 | 17 | 191 | 4.8 | 12.9 | 0.00 | 0.00 | 0.00 | 34 | 1014.2 |
| 20260502192324 | 17 | 211 | 3.2 | 4.8 | 0.00 | 0.00 | 0.00 | 32 | 1014.2 |
| 20260502191821 | 17 | 247 | 6.4 | 8.0 | 0.00 | 0.00 | 0.00 | 33 | 1014.4 |
| 20260502191319 | 17 | 245 | 4.8 | 4.8 | 0.00 | 0.00 | 0.00 | 35 | 1014.5 |
| 20260502190816 | 16 | 188 | 1.6 | 1.6 | 0.00 | 0.00 | 0.00 | 34 | 1014.6 |
| 20260502190313 | 15 | 158 | 8.0 | 11.3 | 0.00 | 0.00 | 0.00 | 36 | 1014.7 |
| 20260502185809 | 16 | 210 | 8.0 | 11.3 | 0.00 | 0.00 | 0.00 | 34 | 1014.8 |
| 20260502185305 | 16 | 308 | 3.2 | 3.2 | 0.00 | 0.00 | 0.00 | 34 | 1014.8 |
| 20260502184802 | 16 | 160 | 3.2 | 4.8 | 0.00 | 0.00 | 0.00 | 36 | 1014.9 |
| 20260502184257 | 17 | 207 | 1.6 | 1.6 | 0.00 | 0.00 | 0.00 | 34 | 1015.3 |
| 20260502183754 | 16 | 192 | 4.8 | 8.0 | 0.00 | 0.00 | 0.00 | 35 | 1014.8 |
| 20260502183250 | 15 | 200 | 4.8 | 8.0 | 0.00 | 0.00 | 0.00 | 34 | 1015.3 |
| 20260502182746 | 16 | 278 | 8.0 | 11.3 | 0.00 | 0.00 | 0.00 | 34 | 1015.3 |
| 20260502182241 | 16 | 220 | 4.8 | 4.8 | 0.00 | 0.00 | 0.00 | 37 | 1015.4 |
| 20260502181738 | 16 | 200 | 8.0 | 11.3 | 0.00 | 0.00 | 0.00 | 34 | 1015.6 |
| 20260502181237 | 16 | 317 | 4.8 | 4.8 | 0.00 | 0.00 | 0.00 | 35 | 1015.8 |
| 20260502180734 | 16 | 198 | 1.6 | 3.2 | 0.00 | 0.00 | 0.00 | 34 | 1015.6 |
| 20260502180232 | 16 | 279 | 6.4 | 9.7 | 0.00 | 0.00 | 0.00 | 34 | 1015.7 |
| 20260502170156 | 14 | 176 | 9.7 | 14.5 | 0.00 | 0.00 | 0.00 | 37 | 1016.8 |
| 20260502164142 | 13 | 143 | 4.8 | 8.0 | 0.00 | 0.00 | 0.00 | 43 | 1017.1 |
| 20260502163638 | 13 | 158 | 4.8 | 8.0 | 0.00 | 0.00 | 0.00 | 39 | 1017.0 |
| 20260502163135 | 13 | 236 | 3.2 | 4.8 | 0.00 | 0.00 | 0.00 | 38 | 1017.1 |
| 20260502162632 | 13 | 196 | 6.4 | 8.0 | 0.00 | 0.00 | 0.00 | 37 | 1017.3 |
| 20260502162129 | 13 | 349 | 6.4 | 11.3 | 0.00 | 0.00 | 0.00 | 40 | 1017.2 |
| 20260502161626 | 13 | 152 | 1.6 | 3.2 | 0.00 | 0.00 | 0.00 | 41 | 1017.5 |
| 20260502161123 | 13 | 200 | 4.8 | 8.0 | 0.00 | 0.00 | 0.00 | 41 | 1017.3 |
| 20260502160621 | 13 | 212 | 9.7 | 14.5 | 0.00 | 0.00 | 0.00 | 39 | 1017.3 |
| 20260502160120 | 13 | 208 | 8.0 | 11.3 | 0.00 | 0.00 | 0.00 | 38 | 1017.4 |
| 20260502152034 | 12 | 95 | 1.6 | 3.2 | 0.00 | 0.00 | 0.00 | 41 | 1017.8 |
| 20260502151531 | 12 | 64 | 3.2 | 8.0 | 0.00 | 0.00 | 0.00 | 41 | 1017.8 |
| 20260502151028 | 12 | 261 | 4.8 | 4.8 | 0.00 | 0.00 | 0.00 | 42 | 1017.8 |
| 20260502150526 | 12 | 291 | 3.2 | 4.8 | 0.00 | 0.00 | 0.00 | 43 | 1017.9 |
| 20260502130410 | 8 | 293 | 1.6 | 3.2 | 0.00 | 0.00 | 0.00 | 54 | 1018.5 |
| 20260502123353 | 7 | 212 | 0.0 | 1.6 | 0.00 | 0.00 | 0.00 | 58 | 1018.5 |
| 20260502122850 | 6 | 297 | 4.8 | 4.8 | 0.00 | 0.00 | 0.00 | 58 | 1018.5 |
| 20260502122345 | 6 | 336 | 1.6 | 1.6 | 0.00 | 0.00 | 0.00 | 59 | 1018.3 |
| 20260502121844 | 6 | 14 | 1.6 | 1.6 | 0.00 | 0.00 | 0.00 | 60 | 1018.1 |
| 20260502121341 | 6 | 271 | 1.6 | 1.6 | 0.00 | 0.00 | 0.00 | 60 | 1018.4 |
| 20260502120839 | 6 | 179 | 1.6 | 1.6 | 0.00 | 0.00 | 0.00 | 61 | 1018.4 |
| 20260502120335 | 5 | 291 | 1.6 | 1.6 | 0.00 | 0.00 | 0.00 | 62 | 1018.4 |
| 20260502115832 | 5 | 309 | 3.2 | 3.2 | 0.00 | 0.00 | 0.00 | 62 | 1018.0 |
| 20260502115329 | 5 | 347 | 1.6 | 1.6 | 0.00 | 0.00 | 0.00 | 63 | 1018.4 |
| 20260502114826 | 5 | 299 | 1.6 | 1.6 | 0.00 | 0.00 | 0.00 | 64 | 1018.3 |
| 20260502114323 | 5 | 283 | 3.2 | 3.2 | 0.00 | 0.00 | 0.00 | 64 | 1018.4 |
| 20260502113820 | 5 | 272 | 0.0 | 1.6 | 0.00 | 0.00 | 0.00 | 64 | 1018.4 |
| 20260502113317 | 5 | 307 | 3.2 | 3.2 | 0.00 | 0.00 | 0.00 | 64 | 1018.1 |
| 20260502112816 | 5 | 204 | 0.0 | 0.0 | 0.00 | 0.00 | 0.00 | 64 | 1018.3 |
| 20260502112313 | 4 | 295 | 1.6 | 3.2 | 0.00 | 0.00 | 0.00 | 65 | 1018.4 |
| 20260502111810 | 4 | 301 | 3.2 | 3.2 | 0.00 | 0.00 | 0.00 | 65 | 1018.2 |
| 20260502111307 | 5 | 236 | 0.0 | 0.0 | 0.00 | 0.00 | 0.00 | 64 | 1018.1 |
| 20260502110805 | 5 | 298 | 1.6 | 1.6 | 0.00 | 0.00 | 0.00 | 63 | 1018.1 |
| 20260502110302 | 5 | 253 | 1.6 | 1.6 | 0.00 | 0.00 | 0.00 | 63 | 1018.3 |
| 20260502105800 | 5 | 273 | 1.6 | 1.6 | 0.00 | 0.00 | 0.00 | 62 | 1018.1 |
| 20260502105256 | 5 | 178 | 0.0 | 0.0 | 0.00 | 0.00 | 0.00 | 62 | 1018.0 |
| 20260502104754 | 5 | 212 | 0.0 | 1.6 | 0.00 | 0.00 | 0.00 | 62 | 1017.9 |
| 20260502104251 | 5 | 189 | 0.0 | 1.6 | 0.00 | 0.00 | 0.00 | 62 | 1018.2 |
| 20260502103749 | 5 | 218 | 0.0 | 0.0 | 0.00 | 0.00 | 0.00 | 63 | 1018.0 |
| 20260502103246 | 5 | 255 | 3.2 | 3.2 | 0.00 | 0.00 | 0.00 | 62 | 1018.1 |
| 20260502102743 | 5 | 172 | 0.0 | 0.0 | 0.00 | 0.00 | 0.00 | 62 | 1018.2 |
| 20260502102239 | 5 | 197 | 1.6 | 1.6 | 0.00 | 0.00 | 0.00 | 62 | 1017.9 |
| 20260502101738 | 5 | 171 | 0.0 | 0.0 | 0.00 | 0.00 | 0.00 | 62 | 1018.1 |
| 20260502101235 | 5 | 182 | 0.0 | 0.0 | 0.00 | 0.00 | 0.00 | 61 | 1017.9 |
| 20260502100733 | 5 | 191 | 0.0 | 0.0 | 0.00 | 0.00 | 0.00 | 61 | 1018.1 |
| 20260502100232 | 5 | 188 | 0.0 | 0.0 | 0.00 | 0.00 | 0.00 | 61 | 1018.1 |
| 20260502091206 | 5 | 196 | 0.0 | 1.6 | 0.00 | 0.00 | 0.00 | 59 | 1017.9 |
| 20260502090703 | 5 | 210 | 0.0 | 0.0 | 0.00 | 0.00 | 0.00 | 59 | 1017.9 |
| 20260502090200 | 5 | 181 | 0.0 | 0.0 | 0.00 | 0.00 | 0.00 | 58 | 1017.7 |
| 20260502071055 | 6 | 298 | 1.6 | 3.2 | 0.00 | 0.00 | 0.00 | 53 | 1018.2 |
| 20260502070553 | 6 | 49 | 1.6 | 1.6 | 0.00 | 0.00 | 0.00 | 53 | 1018.3 |
| 20260502070051 | 6 | 250 | 0.0 | 0.0 | 0.00 | 0.00 | 0.00 | 53 | 1018.2 |
| 20260502065549 | 6 | 292 | 1.6 | 1.6 | 0.00 | 0.00 | 0.00 | 52 | 1018.4 |
| 20260502065047 | 6 | 264 | 1.6 | 1.6 | 0.00 | 0.00 | 0.00 | 52 | 1018.5 |
| 20260502064545 | 6 | 306 | 1.6 | 3.2 | 0.00 | 0.00 | 0.00 | 52 | 1018.5 |
| 20260502064042 | 6 | 163 | 0.0 | 0.0 | 0.00 | 0.00 | 0.00 | 51 | 1018.3 |
| 20260502063540 | 6 | 193 | 0.0 | 0.0 | 0.00 | 0.00 | 0.00 | 51 | 1018.3 |
| 20260502063037 | 6 | 179 | 0.0 | 1.6 | 0.00 | 0.00 | 0.00 | 51 | 1018.3 |
| 20260502062534 | 6 | 265 | 1.6 | 3.2 | 0.00 | 0.00 | 0.00 | 51 | 1018.4 |
| 20260502062032 | 6 | 188 | 0.0 | 0.0 | 0.00 | 0.00 | 0.00 | 51 | 1018.3 |
| 20260502061530 | 6 | 257 | 0.0 | 1.6 | 0.00 | 0.00 | 0.00 | 51 | 1018.6 |
| 20260502061027 | 6 | 232 | 0.0 | 1.6 | 0.00 | 0.00 | 0.00 | 51 | 1018.3 |
| 20260502060522 | 6 | 254 | 0.0 | 0.0 | 0.00 | 0.00 | 0.00 | 51 | 1018.4 |
| 20260502060019 | 7 | 266 | 3.2 | 4.8 | 0.00 | 0.00 | 0.00 | 51 | 1018.2 |
| 20260502055516 | 7 | 179 | 1.6 | 3.2 | 0.00 | 0.00 | 0.00 | 51 | 1018.3 |
| 20260502055015 | 7 | 176 | 0.0 | 0.0 | 0.00 | 0.00 | 0.00 | 51 | 1018.3 |
| 20260502054513 | 7 | 210 | 0.0 | 0.0 | 0.00 | 0.00 | 0.00 | 52 | 1018.5 |
| 20260502054010 | 7 | 198 | 0.0 | 0.0 | 0.00 | 0.00 | 0.00 | 52 | 1018.4 |
| 20260502053507 | 7 | 211 | 0.0 | 1.6 | 0.00 | 0.00 | 0.00 | 52 | 1018.6 |
| 20260502053005 | 7 | 232 | 1.6 | 1.6 | 0.00 | 0.00 | 0.00 | 53 | 1018.5 |
| 20260502052503 | 7 | 247 | 0.0 | 1.6 | 0.00 | 0.00 | 0.00 | 53 | 1018.5 |
| 20260502052001 | 7 | 167 | 0.0 | 0.0 | 0.00 | 0.00 | 0.00 | 53 | 1018.6 |
| 20260502051459 | 7 | 167 | 0.0 | 0.0 | 0.00 | 0.00 | 0.00 | 54 | 1018.6 |
| 20260502050955 | 7 | 173 | 0.0 | 0.0 | 0.00 | 0.00 | 0.00 | 53 | 1018.5 |
| 20260502050452 | 6 | 185 | 0.0 | 0.0 | 0.00 | 0.00 | 0.00 | 52 | 1018.3 |
| 20260502045949 | 6 | 193 | 0.0 | 0.0 | 0.00 | 0.00 | 0.00 | 53 | 1018.1 |
| 20260502045446 | 6 | 168 | 0.0 | 0.0 | 0.00 | 0.00 | 0.00 | 52 | 1018.5 |
| 20260502044943 | 6 | 176 | 0.0 | 1.6 | 0.00 | 0.00 | 0.00 | 53 | 1018.4 |
| 20260502044438 | 6 | 179 | 0.0 | 1.6 | 0.00 | 0.00 | 0.00 | 54 | 1018.5 |
| 20260502043936 | 6 | 163 | 0.0 | 0.0 | 0.00 | 0.00 | 0.00 | 54 | 1018.5 |
| 20260502043434 | 6 | 163 | 0.0 | 0.0 | 0.00 | 0.00 | 0.00 | 53 | 1018.3 |
| 20260502042933 | 6 | 163 | 0.0 | 0.0 | 0.00 | 0.00 | 0.00 | 51 | 1018.3 |
| 20260502042430 | 7 | 163 | 0.0 | 0.0 | 0.00 | 0.00 | 0.00 | 50 | 1018.4 |
| 20260502041927 | 7 | 207 | 1.6 | 1.6 | 0.00 | 0.00 | 0.00 | 50 | 1018.4 |
| 20260502041425 | 6 | 192 | 0.0 | 0.0 | 0.00 | 0.00 | 0.00 | 50 | 1018.4 |
| 20260502040922 | 7 | 166 | 0.0 | 0.0 | 0.00 | 0.00 | 0.00 | 50 | 1018.4 |
| 20260502040418 | 7 | 162 | 0.0 | 0.0 | 0.00 | 0.00 | 0.00 | 49 | 1018.3 |
| 20260502035915 | 7 | 168 | 0.0 | 0.0 | 0.00 | 0.00 | 0.00 | 48 | 1018.5 |
| 20260502035411 | 7 | 176 | 0.0 | 0.0 | 0.00 | 0.00 | 0.00 | 49 | 1018.4 |
| 20260502034909 | 7 | 160 | 0.0 | 0.0 | 0.00 | 0.00 | 0.00 | 49 | 1018.4 |
| 20260502034408 | 7 | 170 | 0.0 | 0.0 | 0.00 | 0.00 | 0.00 | 49 | 1018.6 |
| 20260502033905 | 7 | 162 | 0.0 | 0.0 | 0.00 | 0.00 | 0.00 | 50 | 1018.3 |
| 20260502033403 | 7 | 172 | 0.0 | 0.0 | 0.00 | 0.00 | 0.00 | 50 | 1018.3 |
| 20260502032859 | 7 | 162 | 0.0 | 0.0 | 0.00 | 0.00 | 0.00 | 51 | 1018.4 |
| 20260502032355 | 7 | 162 | 0.0 | 0.0 | 0.00 | 0.00 | 0.00 | 51 | 1018.4 |
| 20260502031853 | 7 | 162 | 0.0 | 0.0 | 0.00 | 0.00 | 0.00 | 51 | 1018.3 |
| 20260502031351 | 7 | 162 | 0.0 | 0.0 | 0.00 | 0.00 | 0.00 | 50 | 1018.4 |
| 20260502030849 | 7 | 162 | 0.0 | 0.0 | 0.00 | 0.00 | 0.00 | 49 | 1018.5 |
| 20260502030347 | 7 | 162 | 0.0 | 0.0 | 0.00 | 0.00 | 0.00 | 48 | 1018.5 |
| 20260502025844 | 7 | 162 | 0.0 | 0.0 | 0.00 | 0.00 | 0.00 | 47 | 1018.4 |
| 20260502025342 | 7 | 162 | 0.0 | 0.0 | 0.00 | 0.00 | 0.00 | 46 | 1018.3 |
| 20260502024839 | 7 | 162 | 0.0 | 0.0 | 0.00 | 0.00 | 0.00 | 46 | 1018.7 |
| 20260502024337 | 7 | 163 | 0.0 | 0.0 | 0.00 | 0.00 | 0.00 | 47 | 1018.4 |
| 20260502023835 | 7 | 167 | 0.0 | 0.0 | 0.00 | 0.00 | 0.00 | 47 | 1018.4 |
| 20260502023332 | 7 | 163 | 0.0 | 0.0 | 0.00 | 0.00 | 0.00 | 46 | 1018.5 |
| 20260502022830 | 7 | 158 | 0.0 | 0.0 | 0.00 | 0.00 | 0.00 | 48 | 1018.5 |
| 20260502022326 | 7 | 161 | 0.0 | 0.0 | 0.00 | 0.00 | 0.00 | 51 | 1018.4 |
| 20260502021823 | 7 | 161 | 0.0 | 0.0 | 0.00 | 0.00 | 0.00 | 49 | 1018.5 |
| 20260502021320 | 7 | 161 | 0.0 | 0.0 | 0.00 | 0.00 | 0.00 | 48 | 1018.5 |
| 20260502020817 | 8 | 161 | 0.0 | 0.0 | 0.00 | 0.00 | 0.00 | 47 | 1018.3 |
| 20260502020315 | 8 | 162 | 0.0 | 0.0 | 0.00 | 0.00 | 0.00 | 45 | 1018.3 |
| 20260502015812 | 8 | 162 | 0.0 | 0.0 | 0.00 | 0.00 | 0.00 | 43 | 1018.2 |
| 20260502015308 | 8 | 162 | 0.0 | 0.0 | 0.00 | 0.00 | 0.00 | 42 | 1018.2 |
| 20260502014806 | 8 | 162 | 0.0 | 0.0 | 0.00 | 0.00 | 0.00 | 41 | 1018.2 |
| 20260502014303 | 9 | 161 | 0.0 | 0.0 | 0.00 | 0.00 | 0.00 | 40 | 1017.8 |
| 20260502013759 | 9 | 161 | 0.0 | 0.0 | 0.00 | 0.00 | 0.00 | 40 | 1018.0 |
| 20260502013255 | 10 | 162 | 0.0 | 0.0 | 0.00 | 0.00 | 0.00 | 39 | 1017.9 |
| 20260502012751 | 10 | 237 | 0.0 | 1.6 | 0.00 | 0.00 | 0.00 | 37 | 1018.1 |
| 20260502012249 | 10 | 302 | 1.6 | 1.6 | 0.00 | 0.00 | 0.00 | 37 | 1017.7 |
| 20260502011746 | 10 | 153 | 0.0 | 0.0 | 0.00 | 0.00 | 0.00 | 36 | 1018.0 |
| 20260502011242 | 10 | 204 | 0.0 | 1.6 | 0.00 | 0.00 | 0.00 | 36 | 1017.8 |
| 20260502010740 | 10 | 8 | 0.0 | 1.6 | 0.00 | 0.00 | 0.00 | 35 | 1017.8 |
| 20260502010236 | 10 | 314 | 1.6 | 3.2 | 0.00 | 0.00 | 0.00 | 35 | 1017.9 |
| 20260502005733 | 11 | 304 | 4.8 | 4.8 | 0.00 | 0.00 | 0.00 | 35 | 1017.7 |
| 20260502005231 | 11 | 279 | 1.6 | 3.2 | 0.00 | 0.00 | 0.00 | 35 | 1017.8 |
| 20260502004728 | 11 | 316 | 1.6 | 1.6 | 0.00 | 0.00 | 0.00 | 34 | 1017.9 |
| 20260502004224 | 11 | 297 | 0.0 | 1.6 | 0.00 | 0.00 | 0.00 | 34 | 1017.8 |
| 20260502003722 | 11 | 215 | 0.0 | 0.0 | 0.00 | 0.00 | 0.00 | 33 | 1017.9 |
| 20260502003219 | 11 | 341 | 1.6 | 1.6 | 0.00 | 0.00 | 0.00 | 34 | 1017.7 |
| 20260502002714 | 11 | 350 | 4.8 | 8.0 | 0.00 | 0.00 | 0.00 | 33 | 1017.9 |
| 20260502002213 | 11 | 335 | 4.8 | 4.8 | 0.00 | 0.00 | 0.00 | 34 | 1018.0 |
| 20260502001709 | 11 | 308 | 6.4 | 8.0 | 0.00 | 0.00 | 0.00 | 34 | 1017.8 |
| 20260502001208 | 11 | 285 | 3.2 | 4.8 | 0.00 | 0.00 | 0.00 | 33 | 1017.7 |
| 20260502000704 | 12 | 323 | 4.8 | 9.7 | 0.00 | 0.00 | 0.00 | 32 | 1017.8 |
| 20260502000204 | 12 | 345 | 1.6 | 1.6 | 0.00 | 0.00 | 0.00 | 33 | 1017.6 |
| 20260501235658 | 12 | 304 | 4.8 | 8.0 | 0.00 | 0.00 | 0.00 | 32 | 1017.8 |
| 20260501235154 | 12 | 330 | 1.6 | 3.2 | 0.00 | 0.00 | 0.00 | 32 | 1017.8 |
| 20260501234650 | 12 | 223 | 1.6 | 3.2 | 0.00 | 0.00 | 0.00 | 33 | 1017.7 |
| 20260501234147 | 12 | 296 | 4.8 | 8.0 | 0.00 | 0.00 | 0.00 | 34 | 1017.7 |
| 20260501233645 | 12 | 78 | 3.2 | 4.8 | 0.00 | 0.00 | 0.00 | 33 | 1017.7 |
| 20260501233142 | 12 | 216 | 3.2 | 3.2 | 0.00 | 0.00 | 0.00 | 33 | 1017.8 |
| 20260501232638 | 12 | 321 | 6.4 | 8.0 | 0.00 | 0.00 | 0.00 | 33 | 1017.7 |
| 20260501232136 | 12 | 334 | 4.8 | 4.8 | 0.00 | 0.00 | 0.00 | 31 | 1017.8 |
| 20260501231633 | 11 | 17 | 1.6 | 3.2 | 0.00 | 0.00 | 0.00 | 33 | 1017.7 |
| 20260501231131 | 11 | 291 | 4.8 | 4.8 | 0.00 | 0.00 | 0.00 | 34 | 1018.0 |
| 20260501230630 | 11 | 126 | 0.0 | 0.0 | 0.00 | 0.00 | 0.00 | 33 | 1017.8 |
| 20260501230127 | 11 | 6 | 3.2 | 4.8 | 0.00 | 0.00 | 0.00 | 34 | 1017.6 |
| 20260501225625 | 11 | 9 | 4.8 | 9.7 | 0.00 | 0.00 | 0.00 | 34 | 1017.7 |
| 20260501225121 | 12 | 289 | 4.8 | 8.0 | 0.00 | 0.00 | 0.00 | 32 | 1017.7 |
| 20260501224618 | 12 | 306 | 8.0 | 12.9 | 0.00 | 0.00 | 0.00 | 31 | 1017.8 |
| 20260501224115 | 12 | 284 | 1.6 | 3.2 | 0.00 | 0.00 | 0.00 | 34 | 1017.7 |